Location: Memphis Junction
(33.8007°N, 89.7968°W)
Time: 19:12:03
(UTC+00:00)

N. Korean satellite - Visible Passes

Search period start: 22 January 2022 00:00
Search period end: 01 February 2022 00:00
Orbit: 447 x 491 km, 97.3° (Epoch: 22 January)

Date Brightness Start Highest point End Pass type
(mag) Time Alt. Az. Time Alt. Az. Time Alt. Az.
22 Jan 9.0 11:03:19 15° S 11:03:19 15° S 11:04:02 10° S visible
23 Jan 9.6 10:33:54 11° SE 10:33:54 11° SE 10:34:06 10° SSE visible
23 Jan9.112:07:56SW12:07:56SW12:01:17NNWvisible
24 Jan 8.9 11:31:45 10° N 11:38:28 11° SW 11:38:37 10° SW visible
25 Jan 8.9 11:02:28 10° NNE 11:09:00 15° S 11:09:40 10° S visible
26 Jan 9.4 10:33:45 10° NE 10:39:29 12° SSE 10:39:53 10° SSE visible
26 Jan 8.7 12:07:37 10° NW 12:13:30 - WSW 12:08:05 12° NW visible
27 Jan10.210:09:57SE10:09:57SE10:04:56ENEvisible
27 Jan 8.0 11:37:21 10° N 11:43:58 10° SW 11:43:59 10° SW visible
28 Jan 7.8 11:07:54 10° NNE 11:14:23 16° S 11:15:08 10° S visible
29 Jan 8.8 10:39:01 10° NE 10:44:45 15° SSE 10:45:29 10° SSE visible
29 Jan 8.4 12:13:28 10° NW 12:18:46 - WSW 12:14:58 12° WNW visible
30 Jan 9.9 10:11:15 10° ENE 10:15:02 - SE 10:11:54 12° ENE visible
30 Jan 7.4 11:42:51 10° NNW 11:49:03 11° SW 11:49:10 10° SW visible
31 Jan 6.4 11:13:14 10° N 11:16:51 79° WNW 11:20:26 10° SSW visible
